Location: Rehoboth Beach
(38.7438°N, 75.1341°W)
Time: 22:15:15
(UTC-04:00)

HST - Visible Passes

Search period start: 16 April 2014 00:00
Search period end: 26 April 2014 00:00
Orbit: 549 x 553 km, 28.5° (Epoch: 16 April)

Date Brightness Start Highest point End Pass type
(mag) Time Alt. Az. Time Alt. Az. Time Alt. Az.
16 Apr 3.0 21:28:40 10° SW 21:29:48 14° SSW 21:29:48 14° SSW visible
17 Apr 2.7 21:21:58 10° SW 21:23:59 18° SSW 21:23:59 18° SSW visible
18 Apr 2.5 21:15:19 10° SW 21:18:05 20° S 21:18:05 20° S visible
19 Apr 2.4 21:08:45 10° SW 21:11:50 20° S 21:12:06 20° S visible
20 Apr 2.4 21:02:14 10° SW 21:05:15 19° S 21:06:04 18° SSE visible
21 Apr 2.6 20:55:46 10° SW 20:58:41 18° S 20:59:59 16° SSE visible
22 Apr 2.7 20:49:22 10° SW 20:52:05 17° S 20:53:52 13° SSE visible
23 Apr 2.9 20:43:04 10° SW 20:45:29 15° SSW 20:47:45 11° SSE visible
24 Apr 3.1 20:36:57 10° SW 20:38:52 13° SSW 20:40:48 10° SSE visible
25 Apr 3.2 20:31:16 10° SSW 20:32:14 11° SSW 20:33:12 10° S visible
